Terminal Aerodrome Forecast
Issued by NWS Milwaukee/Sullivan, WI

Home | Current Version | Previous Version | Text Only | Print | Product List | Glossary On
Versions: 1 2 3 4 5 6 7 8 9 10 11 12 13 14 15 16 17 18 19 20 21 22 23 24 25 26 27 28 29 30 31 32 33 34 35 36 37 38 39 40 41 42 43 44 45 46 47 48 49 50
519
FTUS43 KMKX 051729
TAFMSN
TAF
KMSN 051729Z 0518/0618 30004KT P6SM SCT200
     FM052200 23004KT P6SM BKN110
     FM060400 21004KT P6SM BKN045
     FM061200 22005KT P6SM BKN015
     FM061600 24006KT P6SM BKN035=

USA.gov is the U.S. government's official web portal to all federal, state and local government web resources and services.